Simultaneous Nadir Overpasses (SNOs) Predictions

Prediction of SNOs between NOAA-19 and NPP Satellite Orbit:

Table of predicted SNOs for the next 14.0 days since TLE Epoch: 5/2/2013
Index Date (NOAA-19) Time (NOAA-19) Lat,Lon (NOAA-19) SZA (NOAA-19 ) Date (NPP) Time (NPP) Lat,Lon (NPP) SZA (NPP ) Distance(km) Time Diff (sec)
1 05/07/2013 21:48:41 80.90, 160.57 67.40 05/07/2013 21:49:50 80.90, 160.58 67.36 0.22 69
2 05/07/2013 22:39:37 -80.89, -31.90 112.65 05/07/2013 22:40:34 -80.89, -31.92 112.68 0.35 57
3 05/07/2013 23:30:43 80.87, 135.99 67.24 05/07/2013 23:31:18 80.87, 135.90 67.24 1.73 35
4 05/08/2013 00:21:39 -80.86, -56.48 112.81 05/08/2013 00:22:02 -80.86, -56.60 112.81 2.25 23
5 05/08/2013 01:12:48 80.87, 110.33 67.24 05/08/2013 01:12:48 80.87, 110.50 67.22 2.92 0
6 05/08/2013 02:03:43 -80.85, -81.78 112.86 05/08/2013 02:03:31 -80.84, -81.65 112.88 2.40 12
7 05/08/2013 02:54:49 80.82, 86.11 67.03 05/08/2013 02:54:15 80.82, 86.16 67.04 1.01 34
8 05/08/2013 03:45:45 -80.81,-106.37 113.02 05/08/2013 03:44:59 -80.81,-106.34 113.00 0.51 46




NCC Satellite Simultaneous Nadir Overpasses (SNOs) Prediction Service
